Aérodrome :
LOGIN :

S'inscrire | Disclaimer

   EN    FR    IT 

 










Légende :    VFR   VFR Marginal   IFR   IFR Intensif   IFR Très Intensif
Visi : 
Plafond : 
>= 8 km
>= 3000ft
5 à 8 km
1000 à 3000 ft
1500m à 5 km
500 à 1000 ft
800 à 1500m
200 à 500 ft
< 800m
< 200 ft
Symboles :   Orages  Brouillard  Fortes neiges  Fortes précipitations  Vent > 20 kt
SIGMETs :   Divers  Orages  Givrage  Turbulence  Onde Orograph.  Cendres Volcan.







- Altitude de l'aérodrome : 157 ft
- Code IATA : SXF


EDDB - Berlin Schönefeld

DERNIER METAR :
  • 211820Z 16003KT 120V200 CAVOK 08/04 Q1027 NOSIG

METARs EXPIRÉS :
  • 211750Z 18003KT CAVOK 08/04 Q1027 NOSIG
  • 211720Z 17005KT CAVOK 10/04 Q1027 NOSIG
  • 211650Z 17005KT CAVOK 11/04 Q1027 NOSIG
  • 211620Z 18004KT CAVOK 12/04 Q1027 NOSIG
  • 211550Z 19004KT CAVOK 13/05 Q1027 NOSIG

TAF TAF EDDB
Valide du 21 à 18h jusqu'au 22 à 18h UTC


211700Z 2118/2218 18004KT CAVOK
BECMG 2203/2205 24005KT
BECMG 2208/2210 31008KT
TEMPO 2209/2213 2500 -RA BKN010
Pas de NOTAMs connus pour ce terrain.



MET'MAP, la Météo Aéronautique d'un coup d'oeil ! - Copyright ORBIFLY Décembre 2007 - Disclaimer

ORBIFLY MET'MAP TEAM :

Programmation & Développement : Alexandra Zaïnal
Conception & Développement : Baudouin d'Aumeries
Co-Programmation & Développement : Marc-Olivier Méhu
Soutien technique & logistique : Manuel Goepfert

Contact : metmap@orbifly.com




SOURCES & CREDITS :

   NOAA